Date String (YYYY-MM-DD hh:mm:ss) UTC,Instrument flags,Ambient pressure (hPa),Sample flow (lpm),Bypass flow (lpm),Sample temperature (°C),Ambient temperature (°C),ASC tube jacket temperature (°C),LED temperature (°C),Box temperature (°C),Sample RH (%),Span deviation,Mass concentration (μg/m³),Mass concentration (μg/m³),Mass concentration (μg/m³)
DateTimeUTC,F1_M11,P_M11,Q1_M11,Q2_M11,T1_M11,T2_M11,T3_M11,T4_M11,T5_M11,U1_M11,ZSPAN_M11,X0_M11,X2_M11,X1_M11
2022-11-08 11:00:00,,0821.8,5.02,0.00,23.6,22.1,00.0,32.4,25.5,13.4,0000.7,0011.08,0004.82,0004.26
2022-11-08 11:01:00,,0821.8,4.99,0.00,23.6,22.1,00.0,32.4,25.5,13.6,0000.5,0010.96,0004.80,0004.23
2022-11-08 11:02:00,,0821.8,5.01,0.00,23.6,22.1,00.0,32.4,25.5,13.2,0000.5,0010.93,0004.78,0004.24
2022-11-08 11:03:00,,0821.8,5.02,0.00,23.6,22.1,00.0,32.4,25.5,12.8,0000.0,0009.98,0004.67,0004.15
2022-11-08 11:04:00,,0821.8,4.99,0.00,23.6,22.1,00.0,32.4,25.4,12.7,-000.6,0009.94,0004.62,0004.09
2022-11-08 11:05:00,,0821.7,5.01,0.00,23.6,22.1,00.0,32.4,25.4,12.7,-000.9,0009.92,0004.58,0004.05
2022-11-08 11:06:00,,0821.7,5.01,0.00,23.6,22.1,00.0,32.4,25.4,12.5,-001.0,0009.48,0004.46,0003.97
2022-11-08 11:07:00,,0821.7,4.98,0.00,23.6,22.1,00.0,32.4,25.5,12.2,-000.7,0009.58,0004.35,0003.87
2022-11-08 11:08:00,,0821.7,5.01,0.00,23.6,22.1,00.0,32.4,25.5,11.7,0000.0,0009.19,0004.25,0003.79
2022-11-08 11:09:00,,0821.7,5.01,0.00,23.6,22.1,00.0,32.4,25.5,11.4,0000.7,0008.54,0004.12,0003.68
2022-11-08 11:10:00,,0821.8,4.99,0.00,23.6,22.1,00.0,32.4,25.5,11.2,0000.5,0008.15,0003.92,0003.51
2022-11-08 11:11:00,,0821.8,5.02,0.00,23.6,22.1,00.0,32.4,25.5,11.3,0000.8,0008.04,0003.70,0003.31
2022-11-08 11:12:00,,0821.8,4.99,0.00,23.6,22.1,00.0,32.4,25.5,11.6,0001.1,0007.63,0003.50,0003.13
2022-11-08 11:13:00,,0821.8,5.00,0.00,23.6,22.1,00.0,32.4,25.5,11.9,0000.8,0007.30,0003.35,0002.92
2022-11-08 11:14:00,,0821.8,5.01,0.00,23.6,22.1,00.0,32.4,25.5,11.8,0000.9,0007.01,0003.22,0002.69
2022-11-08 11:15:00,,0821.8,4.99,0.00,23.6,22.1,00.0,32.4,25.5,11.9,0001.4,0006.52,0003.05,0002.49
2022-11-08 11:16:00,,0821.7,5.01,0.00,23.6,22.1,00.0,32.4,25.5,12.1,0000.0,0006.05,0002.88,0002.38
2022-11-08 11:17:00,,0821.7,5.01,0.00,23.6,22.1,00.0,32.4,25.5,12.2,0000.0,0005.75,0002.81,0002.31
2022-11-08 11:18:00,,0821.7,4.98,0.00,23.6,22.1,00.0,32.4,25.5,12.4,0000.0,0004.77,0002.83,0002.31
2022-11-08 11:19:00,,0821.7,5.01,0.00,23.6,22.1,00.0,32.4,25.5,12.9,0000.0,0005.01,0002.97,0002.43
2022-11-08 11:20:00,,0821.7,5.01,0.00,23.6,22.1,00.0,32.4,25.5,13.5,0000.0,0006.99,0003.23,0002.70
2022-11-08 11:21:00,,0821.7,4.99,0.00,23.6,22.1,00.0,32.4,25.5,13.3,0002.3,0007.72,0003.42,0003.00
2022-11-08 11:22:00,,0821.7,5.00,0.00,23.6,22.1,00.0,32.4,25.5,11.7,0002.0,0007.67,0003.47,0003.11
2022-11-08 11:23:00,,0821.8,5.01,0.00,23.6,22.1,00.0,32.4,25.5,10.9,0002.5,0007.44,0003.41,0003.03
2022-11-08 11:24:00,,0821.8,4.99,0.00,23.6,22.1,00.0,32.4,25.5,10.7,0003.4,0007.24,0003.30,0002.85
2022-11-08 11:25:00,,0821.8,5.00,0.00,23.6,22.1,00.0,32.4,25.5,10.5,0003.3,0007.00,0003.22,0002.73
2022-11-08 11:26:00,,0821.7,5.00,0.00,23.6,22.1,00.0,32.4,25.4,11.2,0001.1,0007.13,0003.22,0002.74
2022-11-08 11:27:00,,0821.7,5.00,0.00,23.6,22.1,00.0,32.4,25.5,11.3,0002.4,0007.46,0003.23,0002.74
2022-11-08 11:28:00,,0821.7,4.99,0.00,23.6,22.1,00.0,32.4,25.5,10.9,0002.2,0007.13,0003.09,0002.56
2022-11-08 11:29:00,,0821.8,5.00,0.00,23.6,22.1,00.0,32.4,25.4,11.1,0001.3,0006.70,0002.83,0002.36
2022-11-08 11:30:00,,0821.8,5.01,0.00,23.6,22.1,00.0,32.4,25.4,10.7,0000.1,0006.28,0002.55,0002.09
2022-11-08 11:31:00,,0821.8,4.97,0.00,23.6,22.1,00.0,32.4,25.4,10.7,0000.0,0004.46,0002.06,0001.70
2022-11-08 11:32:00,,0821.8,5.01,0.00,23.5,22.1,00.0,32.4,25.4,10.9,0000.0,0002.84,0001.57,0001.29
2022-11-08 11:33:00,,0821.8,5.01,0.00,23.5,22.1,00.0,32.4,25.4,10.8,0000.0,0002.56,0001.33,0001.06
2022-11-08 11:34:00,,0821.8,4.98,0.00,23.5,22.1,00.0,32.4,25.4,10.8,0000.0,0002.66,0001.29,0001.03
2022-11-08 11:35:00,,0821.9,5.01,0.00,23.5,22.0,00.0,32.4,25.4,11.0,0000.0,0002.69,0001.31,0001.04
2022-11-08 11:36:00,,0822.0,5.00,0.00,23.5,22.0,00.0,32.4,25.3,11.2,0000.0,0002.71,0001.31,0001.03
2022-11-08 11:37:00,,0822.0,4.99,0.00,23.5,22.0,00.0,32.4,25.3,11.1,0000.0,0002.59,0001.26,0000.98
2022-11-08 11:38:00,,0822.2,5.01,0.00,23.5,22.0,00.0,32.4,25.3,11.4,0000.0,0002.14,0001.19,0000.89
2022-11-08 11:39:00,,0821.8,4.99,0.00,23.5,22.0,00.0,32.4,25.3,11.9,0000.0,0002.33,0001.36,0001.01
2022-11-08 11:40:00,,0821.8,4.99,0.00,23.5,22.0,00.0,32.4,25.3,11.9,0000.0,0002.60,0001.53,0001.14
2022-11-08 11:41:00,,0822.0,5.01,0.00,23.5,22.0,00.0,32.4,25.3,12.0,0000.0,0002.72,0001.67,0001.28
2022-11-08 11:42:00,,0821.9,5.00,0.00,23.5,22.0,00.0,32.3,25.3,12.1,0000.0,0003.03,0001.88,0001.46
2022-11-08 11:43:00,,0821.9,4.99,0.00,23.5,22.0,00.0,32.3,25.3,12.2,0000.0,0003.87,0002.15,0001.65
2022-11-08 11:44:00,,0821.9,5.01,0.00,23.5,22.0,00.0,32.3,25.3,12.4,0000.0,0004.62,0002.39,0001.87
2022-11-08 11:45:00,,0822.0,5.00,0.00,23.5,22.0,00.0,32.3,25.3,12.4,0000.7,0004.95,0002.64,0002.09
2022-11-08 11:46:00,,0821.8,4.99,0.00,23.5,22.0,00.0,32.3,25.3,12.4,0003.1,0006.19,0002.89,0002.30
2022-11-08 11:47:00,,0821.8,5.00,0.00,23.5,22.0,00.0,32.3,25.4,12.6,0003.7,0007.23,0003.16,0002.57
2022-11-08 11:48:00,,0821.8,5.01,0.00,23.5,22.0,00.0,32.3,25.4,13.2,0003.2,0007.80,0003.41,0002.90
2022-11-08 11:49:00,,0821.8,4.99,0.00,23.5,22.0,00.0,32.3,25.4,13.4,0002.6,0008.64,0003.64,0003.19
2022-11-08 11:50:00,,0821.8,4.99,0.00,23.5,22.0,00.0,32.3,25.4,13.3,0002.0,0009.36,0003.79,0003.31
2022-11-08 11:51:00,,0821.7,5.01,0.00,23.5,22.1,00.0,32.3,25.4,13.5,0000.9,0009.59,0003.93,0003.44
2022-11-08 11:52:00,,0821.8,4.98,0.00,23.5,22.1,00.0,32.3,25.4,13.6,0000.9,0009.79,0004.06,0003.58
2022-11-08 11:53:00,,0821.8,5.01,0.00,23.5,22.1,00.0,32.3,25.4,13.3,0000.8,0009.99,0004.19,0003.68
2022-11-08 11:54:00,,0821.8,4.99,0.00,23.5,22.1,00.0,32.3,25.4,13.2,0000.7,0010.31,0004.28,0003.76
2022-11-08 11:55:00,,0821.8,5.01,0.00,23.5,22.1,00.0,32.3,25.5,13.4,0001.4,0010.73,0004.38,0003.86
2022-11-08 11:56:00,,0822.2,5.00,0.00,23.5,22.1,00.0,32.3,25.4,13.5,0001.8,0010.93,0004.53,0003.97
2022-11-08 11:57:00,,0821.9,4.99,0.00,23.5,22.1,00.0,32.3,25.4,13.5,0001.7,0010.98,0004.70,0004.06
2022-11-08 11:58:00,,0822.2,5.00,0.00,23.5,22.0,00.0,32.3,25.4,13.6,0001.6,0011.09,0004.82,0004.16
2022-11-08 11:59:00,,0822.1,5.00,0.00,23.5,22.1,00.0,32.3,25.4,13.8,0001.3,0010.97,0004.88,0004.25
